Time,TemperatureF,DewpointF,PressureIn,WindDirection,WindDirectionDegrees,WindSpeedMPH,WindSpeedGustMPH,Humidity,HourlyPrecipIn,Conditions,Clouds,dailyrainin,SoftwareType,DateUTC
2013-04-06 00:08:00,52.7,51.0,30.16,SW,220,3.0,5.0,95,0.00,,,0.00,weatherlink.com 1.10,2013-04-06 07:08:00,
2013-04-06 00:23:00,53.0,51.0,30.16,SW,221,3.0,5.0,94,0.00,,,0.00,weatherlink.com 1.10,2013-04-06 07:23:00,
2013-04-06 00:38:00,53.3,52.0,30.16,SSE,159,4.0,8.0,94,0.00,,,0.00,weatherlink.com 1.10,2013-04-06 07:38:00,
2013-04-06 00:53:00,53.3,52.0,30.16,SSE,147,2.0,7.0,94,0.00,,,0.00,weatherlink.com 1.10,2013-04-06 07:53:00,
2013-04-06 01:08:00,53.4,52.0,30.16,SW,231,2.0,7.0,95,0.00,,,0.00,weatherlink.com 1.10,2013-04-06 08:08:00,
2013-04-06 01:23:00,53.3,52.0,30.16,WSW,238,1.0,6.0,94,0.00,,,0.00,weatherlink.com 1.10,2013-04-06 08:23:00,
2013-04-06 01:53:00,53.3,52.0,30.16,South,191,4.0,6.0,94,0.00,,,0.00,weatherlink.com 1.10,2013-04-06 08:53:00,
2013-04-06 02:08:00,53.3,52.0,30.16,South,179,5.0,8.0,95,0.00,,,0.00,weatherlink.com 1.10,2013-04-06 09:08:00,
2013-04-06 02:23:00,53.2,52.0,30.16,SSW,193,4.0,7.0,95,0.00,,,0.00,weatherlink.com 1.10,2013-04-06 09:23:00,
2013-04-06 02:38:00,53.0,52.0,30.16,SW,221,4.0,6.0,95,0.00,,,0.00,weatherlink.com 1.10,2013-04-06 09:38:00,
2013-04-06 02:53:00,53.0,52.0,30.15,SSW,204,4.0,7.0,96,0.00,,,0.00,weatherlink.com 1.10,2013-04-06 09:53:00,
2013-04-06 03:08:00,53.0,52.0,30.14,SSE,158,4.0,6.0,96,0.00,,,0.00,weatherlink.com 1.10,2013-04-06 10:08:00,
2013-04-06 03:38:00,53.2,52.0,30.14,SSW,210,4.0,7.0,96,0.00,,,0.00,weatherlink.com 1.10,2013-04-06 10:38:00,
2013-04-06 03:53:00,53.3,52.0,30.14,SW,217,7.0,8.0,96,0.00,,,0.00,weatherlink.com 1.10,2013-04-06 10:53:00,
2013-04-06 04:09:00,53.2,52.0,30.14,SSW,209,6.0,9.0,96,0.00,,,0.00,weatherlink.com 1.10,2013-04-06 11:09:00,
2013-04-06 04:23:00,53.3,52.0,30.14,SSW,198,4.0,6.0,96,0.00,,,0.00,weatherlink.com 1.10,2013-04-06 11:23:00,
2013-04-06 04:53:00,53.3,52.0,30.14,SW,214,4.0,7.0,96,0.00,,,0.00,weatherlink.com 1.10,2013-04-06 11:53:00,
2013-04-06 05:24:00,53.3,52.0,30.14,SSW,207,3.0,7.0,96,0.00,,,0.00,weatherlink.com 1.10,2013-04-06 12:24:00,
2013-04-06 05:38:00,53.0,52.0,30.14,SSW,193,2.0,8.0,96,0.00,,,0.00,weatherlink.com 1.10,2013-04-06 12:38:00,
2013-04-06 06:24:00,52.6,52.0,30.15,SSW,195,4.0,9.0,96,0.00,,,0.00,weatherlink.com 1.10,2013-04-06 13:24:00,
2013-04-06 06:54:00,52.2,51.0,30.15,SW,221,7.0,7.0,97,0.00,,,0.00,weatherlink.com 1.10,2013-04-06 13:54:00,
2013-04-06 07:09:00,52.1,51.0,30.15,WSW,248,2.0,6.0,97,0.00,,,0.00,weatherlink.com 1.10,2013-04-06 14:09:00,
2013-04-06 07:24:00,52.3,52.0,30.16,South,188,2.0,7.0,97,0.00,,,0.00,weatherlink.com 1.10,2013-04-06 14:24:00,
2013-04-06 07:39:00,52.4,52.0,30.15,SSW,207,3.0,6.0,97,0.00,,,0.00,weatherlink.com 1.10,2013-04-06 14:39:00,
2013-04-06 07:54:00,52.7,52.0,30.16,SSW,192,1.0,7.0,97,0.00,,,0.00,weatherlink.com 1.10,2013-04-06 14:54:00,
2013-04-06 08:24:00,53.5,52.0,30.16,WSW,238,8.0,9.0,96,0.00,,,0.00,weatherlink.com 1.10,2013-04-06 15:24:00,
2013-04-06 08:39:00,53.7,53.0,30.16,SSW,193,4.0,9.0,96,0.00,,,0.00,weatherlink.com 1.10,2013-04-06 15:39:00,
2013-04-06 08:54:00,54.5,53.0,30.16,SW,214,7.0,8.0,94,0.00,,,0.00,weatherlink.com 1.10,2013-04-06 15:54:00,
2013-04-06 09:09:00,55.3,53.0,30.16,South,180,6.0,11.0,92,0.00,,,0.00,weatherlink.com 1.10,2013-04-06 16:09:00,
2013-04-06 09:24:00,55.7,54.0,30.16,SSW,198,5.0,10.0,92,0.00,,,0.00,weatherlink.com 1.10,2013-04-06 16:24:00,
2013-04-06 09:41:00,55.7,54.0,30.16,SSW,204,6.0,9.0,92,0.00,,,0.00,weatherlink.com 1.10,2013-04-06 16:41:00,
2013-04-06 09:57:00,55.4,53.0,30.15,SSW,203,4.0,12.0,92,0.00,,,0.00,weatherlink.com 1.10,2013-04-06 16:57:00,
2013-04-06 10:09:00,56.1,54.0,30.16,SW,222,2.0,9.0,92,0.00,,,0.00,weatherlink.com 1.10,2013-04-06 17:09:00,
2013-04-06 10:24:00,56.4,54.0,30.16,SW,226,8.0,11.0,92,0.00,,,0.00,weatherlink.com 1.10,2013-04-06 17:24:00,
2013-04-06 10:39:00,56.5,54.0,30.16,SW,215,7.0,11.0,90,0.00,,,0.00,weatherlink.com 1.10,2013-04-06 17:39:00,
2013-04-06 10:54:00,56.6,54.0,30.16,SSE,152,6.0,10.0,90,0.00,,,0.00,weatherlink.com 1.10,2013-04-06 17:54:00,
2013-04-06 11:09:00,56.5,54.0,30.18,SW,232,7.0,9.0,90,0.00,,,0.00,weatherlink.com 1.10,2013-04-06 18:09:00,
2013-04-06 11:24:00,56.2,54.0,30.18,SSW,212,7.0,8.0,92,0.00,,,0.00,weatherlink.com 1.10,2013-04-06 18:24:00,
2013-04-06 11:39:00,55.8,54.0,30.18,SSE,156,6.0,10.0,93,0.00,,,0.00,weatherlink.com 1.10,2013-04-06 18:39:00,
2013-04-06 11:54:00,55.8,54.0,30.18,SSW,194,4.0,9.0,94,0.00,,,0.00,weatherlink.com 1.10,2013-04-06 18:54:00,
2013-04-06 12:09:00,56.0,54.0,30.19,SSW,193,5.0,11.0,94,0.00,,,0.00,weatherlink.com 1.10,2013-04-06 19:09:00,
2013-04-06 12:24:00,56.4,54.0,30.18,SW,217,9.0,11.0,92,0.00,,,0.00,weatherlink.com 1.10,2013-04-06 19:24:00,
2013-04-06 12:39:00,56.4,54.0,30.19,WSW,245,6.0,10.0,91,0.00,,,0.00,weatherlink.com 1.10,2013-04-06 19:39:00,
2013-04-06 12:54:00,57.0,54.0,30.18,WSW,245,6.0,9.0,90,0.00,,,0.00,weatherlink.com 1.10,2013-04-06 19:54:00,
2013-04-06 13:09:00,57.7,55.0,30.17,SE,128,6.0,11.0,89,0.00,,,0.00,weatherlink.com 1.10,2013-04-06 20:09:00,
2013-04-06 13:24:00,58.4,55.0,30.16,SSW,203,5.0,9.0,87,0.00,,,0.00,weatherlink.com 1.10,2013-04-06 20:24:00,
2013-04-06 14:09:00,59.1,55.0,30.16,SW,221,8.0,12.0,86,0.00,,,0.00,weatherlink.com 1.10,2013-04-06 21:09:00,
2013-04-06 14:24:00,59.4,55.0,30.16,SSW,195,7.0,16.0,85,0.00,,,0.00,weatherlink.com 1.10,2013-04-06 21:24:00,
2013-04-06 14:39:00,59.5,55.0,30.15,SSW,193,9.0,13.0,85,0.00,,,0.00,weatherlink.com 1.10,2013-04-06 21:39:00,
2013-04-06 14:54:00,59.5,55.0,30.16,SW,229,8.0,12.0,85,0.00,,,0.00,weatherlink.com 1.10,2013-04-06 21:54:00,
2013-04-06 15:09:00,59.7,55.0,30.15,SSW,200,6.0,13.0,85,0.00,,,0.00,weatherlink.com 1.10,2013-04-06 22:09:00,
2013-04-06 15:24:00,59.6,55.0,30.15,SSW,194,9.0,12.0,85,0.00,,,0.00,weatherlink.com 1.10,2013-04-06 22:24:00,
2013-04-06 15:54:00,60.2,56.0,30.14,SSE,167,8.0,11.0,85,0.00,,,0.00,weatherlink.com 1.10,2013-04-06 22:54:00,
2013-04-06 16:24:00,59.3,55.0,30.14,SSE,153,12.0,16.0,86,0.00,,,0.00,weatherlink.com 1.10,2013-04-06 23:24:00,
2013-04-06 16:39:00,59.1,55.0,30.14,SSE,167,9.0,14.0,85,0.00,,,0.00,weatherlink.com 1.10,2013-04-06 23:39:00,
2013-04-06 16:55:00,59.1,54.0,30.13,SE,145,6.0,11.0,84,0.00,,,0.00,weatherlink.com 1.10,2013-04-06 23:55:00,
2013-04-06 17:10:00,58.8,54.0,30.13,SSW,193,8.0,11.0,84,0.00,,,0.00,weatherlink.com 1.10,2013-04-07 00:10:00,
2013-04-06 17:25:00,59.0,54.0,30.13,SSW,197,5.0,9.0,84,0.00,,,0.00,weatherlink.com 1.10,2013-04-07 00:25:00,
2013-04-06 17:40:00,58.8,54.0,30.13,SSW,195,5.0,11.0,83,0.00,,,0.00,weatherlink.com 1.10,2013-04-07 00:40:00,
2013-04-06 17:55:00,58.3,54.0,30.13,South,190,4.0,10.0,84,0.00,,,0.00,weatherlink.com 1.10,2013-04-07 00:55:00,
2013-04-06 18:10:00,58.0,53.0,30.13,SSE,150,5.0,10.0,84,0.00,,,0.00,weatherlink.com 1.10,2013-04-07 01:10:00,
2013-04-06 18:25:00,57.5,53.0,30.13,SSW,200,3.0,9.0,85,0.00,,,0.00,weatherlink.com 1.10,2013-04-07 01:25:00,
2013-04-06 18:40:00,56.9,53.0,30.12,SSE,150,4.0,9.0,86,0.00,,,0.00,weatherlink.com 1.10,2013-04-07 01:40:00,
2013-04-06 18:55:00,56.4,53.0,30.12,SSW,205,6.0,10.0,87,0.00,,,0.00,weatherlink.com 1.10,2013-04-07 01:55:00,
2013-04-06 19:10:00,56.0,53.0,30.12,WSW,248,4.0,7.0,88,0.00,,,0.00,weatherlink.com 1.10,2013-04-07 02:10:00,
2013-04-06 19:25:00,55.8,53.0,30.13,SSE,167,2.0,6.0,89,0.00,,,0.00,weatherlink.com 1.10,2013-04-07 02:25:00,
2013-04-06 19:40:00,55.4,52.0,30.13,SE,131,2.0,6.0,89,0.00,,,0.00,weatherlink.com 1.10,2013-04-07 02:40:00,
2013-04-06 19:55:00,55.0,52.0,30.13,SE,146,1.0,5.0,90,0.00,,,0.00,weatherlink.com 1.10,2013-04-07 02:55:00,
2013-04-06 20:10:00,54.5,52.0,30.13,SSW,198,2.0,5.0,90,0.00,,,0.00,weatherlink.com 1.10,2013-04-07 03:10:00,
2013-04-06 20:25:00,54.3,52.0,30.14,SSW,194,1.0,4.0,90,0.00,,,0.00,weatherlink.com 1.10,2013-04-07 03:25:00,
2013-04-06 20:40:00,53.9,51.0,30.14,SSW,200,1.0,3.0,90,0.00,,,0.00,weatherlink.com 1.10,2013-04-07 03:40:00,
2013-04-06 20:55:00,53.6,51.0,30.14,SE,129,2.0,5.0,90,0.00,,,0.00,weatherlink.com 1.10,2013-04-07 03:55:00,
2013-04-06 21:10:00,53.3,51.0,30.14,South,175,2.0,5.0,91,0.00,,,0.00,weatherlink.com 1.10,2013-04-07 04:10:00,
2013-04-06 21:25:00,53.0,51.0,30.14,SSE,160,3.0,3.0,91,0.00,,,0.00,weatherlink.com 1.10,2013-04-07 04:25:00,
2013-04-06 21:40:00,52.8,51.0,30.14,SSE,149,2.0,4.0,92,0.00,,,0.00,weatherlink.com 1.10,2013-04-07 04:40:00,
2013-04-06 21:55:00,52.6,50.0,30.15,WSW,248,1.0,5.0,92,0.00,,,0.00,weatherlink.com 1.10,2013-04-07 04:55:00,
2013-04-06 22:10:00,52.5,50.0,30.16,SSW,198,2.0,4.0,92,0.00,,,0.00,weatherlink.com 1.10,2013-04-07 05:10:00,
2013-04-06 22:25:00,52.4,50.0,30.16,SW,214,1.0,4.0,92,0.00,,,0.00,weatherlink.com 1.10,2013-04-07 05:25:00,
2013-04-06 22:40:00,52.3,50.0,30.16,SSW,205,2.0,4.0,92,0.00,,,0.00,weatherlink.com 1.10,2013-04-07 05:40:00,
2013-04-06 22:55:00,52.4,50.0,30.17,WSW,248,3.0,4.0,92,0.00,,,0.00,weatherlink.com 1.10,2013-04-07 05:55:00,